Regional Weather Roundup
Issued by NWS

Home | Current Version | Previous Version | Graphics & Text | Print | Product List | Glossary Off
Versions: 1 2 3 4 5 6 7 8 9 10 11 12 13 14 15 16 17 18 19 20 21 22 23 24 25 26 27 28 29 30 31 32 33 34 35 36 37 38 39 40 41 42 43 44 45 46 47 48 49 50

291
ASUS43 KMKX 120159
RWRWI

WISCONSIN REGIONAL WEATHER ROUNDUP
NATIONAL WEATHER SERVICE MILWAUKEE/SULLIVAN WI
800 PM CST THU FEB 11 2016

NOTE: "FAIR" INDICATES FEW OR NO CLOUDS BELOW 12,000 FEET WITH NO
SIGNIFICANT WEATHER AND/OR OBSTRUCTIONS TO VISIBILITY.

WIZ001-002-006>008-014>016-023>028-120300-
NORTHWEST WISCONSIN

CITY           SKY/WX    TMP DP  RH WIND       PRES   REMARKS
SUPERIOR ARPT  CLOUDY    15  -1  50 W7        30.19F WCI   5
ASHLAND        CLOUDY    13  -2  51 SW8       30.16F WCI   2
HAYWARD        CLOUDY    12  -4  48 SW7       30.16F WCI   1
SIREN          CLOUDY    14   0  55 W5        30.21F WCI   6
CUMBERLAND     CLOUDY    12   0  57 W6        30.18F WCI   3
RICE LAKE      CLOUDY    13   1  58 SW5       30.21F WCI   6
CHETEK         CLOUDY    13  -1  54 W5        30.20F WCI   5
LADYSMITH      CLOUDY    13  -2  51 W8        30.19F WCI   2
EAU CLAIRE     CLOUDY    14   0  53 W9        30.22F WCI   2
MENOMONIE      CLOUDY    16   1  52 SW7       30.23F WCI   6
NEW RICHMOND   CLOUDY    14   3  59 SW5       30.22F WCI   7
OSCEOLA        CLOUDY    15   4  60 W6        30.26F WCI   7
$$

WIZ003>005-009-010-017-018-120300-
NORTH CENTRAL WISCONSIN

CITY           SKY/WX    TMP DP  RH WIND       PRES   REMARKS
MANITOWISH WTR CLOUDY    10  -5  49 W9        30.08S WCI  -2
ARBOR VITAE    CLOUDY    14  -2  49 W8        30.08S WCI   3
WOODRUFF       CLOUDY    14  -2  49 W8        30.08S WCI   3
RHINELANDER    CLOUDY    11  -5  48 W13       30.08F WCI  -4
EAGLE RIVER    CLOUDY    12  -5  47 W13       30.06F WCI  -3
LAND O LAKES   CLOUDY    11  -3  51 W6        30.06F WCI   2
PHILLIPS       CLOUDY    10  -5  50 SW7       30.12F WCI   0
TOMAHAWK       CLOUDY    11  -5  47 W6        30.13S WCI   2
MEDFORD        CLOUDY    11  -4  51 W7        30.14F WCI   0
MERRILL        CLOUDY    12  -4  48 W9        30.15F WCI   0
$$

WIZ029-030-035-036-043>047-120300-
CENTRAL WISCONSIN

CITY           SKY/WX    TMP DP  RH WIND       PRES   REMARKS
WAUSAU         CLOUDY    13   0  56 W7        30.15F WCI   3
MOSINEE        CLOUDY    12  -2  52 W9        30.17S WCI   0
MARSHFIELD     CLOUDY    14  -3  47 W8        30.16F WCI   3
STEVENS POINT  CLOUDY    13  -3  48 W3        30.19S
WAUPACA        CLOUDY    15  -1  48 SW3       30.21S
WAUTOMA        NOT AVBL
WISC RAPIDS    CLOUDY    15  -3  44 W6        30.21S WCI   6
CAMP DOUGLAS   NOT AVBL
$$

WIZ011>013-019>022-031-037>040-048>050-120300-
NORTHEAST WISCONSIN

CITY           SKY/WX    TMP DP  RH WIND       PRES   REMARKS
ANTIGO         CLOUDY    10  -4  51 W10       30.11F WCI  -4
SHAWANO        CLOUDY    17  -4  39 SW6       30.19F WCI   8
OCONTO         CLOUDY    13  -3  48 SW6       30.18F WCI   4
STURGEON BAY   CLOUDY    14  -4  44 SW12      30.18F WCI   0
GREEN BAY      CLOUDY    15   0  51 SW7       30.20F WCI   5
MANITOWOC      NOT AVBL
APPLETON       MOCLDY    14  -4  44 SW6       30.18F WCI   5
CLINTONVILLE   CLOUDY    14   0  52 SW6       30.19F WCI   5
OSHKOSH        CLOUDY    14  -1  51 SW5       30.21F WCI   6
$$

WIZ032>034-041-042-053>061-120300-
SOUTHWEST WISCONSIN

CITY           SKY/WX    TMP DP  RH WIND       PRES   REMARKS
LA CROSSE      CLOUDY    15   0  51 W9        30.27S WCI   3
SPARTA         CLOUDY    16   1  51 W3        30.25F
VIROQUA        CLOUDY    13   1  60 SW7       30.21F WCI   3
BOSCOBEL       CLOUDY    13   0  56 SW5       30.28F WCI   5
PRAIRIE DU CHI CLOUDY    14   1  55 CALM      30.29F
PLATTEVILLE    PTCLDY    13   1  61 W6        30.26S WCI   3
$$

WIZ056-057-062-063-064-067-068-120300-
SOUTH CENTRAL WISCONSIN

CITY           SKY/WX    TMP DP  RH WIND       PRES   REMARKS
REEDSBURG      CLOUDY    16   0  49 SW5       30.23F WCI   9
BARABOO/DELLS  CLOUDY    15  -1  50 SW7       30.22F WCI   5
LONE ROCK      NOT AVBL
MINERAL POINT  CLOUDY    14  -2  48 W5        30.24S WCI   6
MADISON        CLOUDY    14   0  53 SW5       30.24F WCI   6
MIDDLETON      CLOUDY    16   1  52 W5        30.25S WCI   9
WATERTOWN      MOCLDY    13   1  59 SW3       30.24S
MONROE         MOCLDY    14   0  52 W6        30.24S WCI   5
JANESVILLE     PTCLDY    18   3  53 W3        30.26R
$$

WIZ051-052-058>065-066-070>072-120300-
SOUTHEAST WISCONSIN

CITY           SKY/WX    TMP DP  RH WIND       PRES   REMARKS
MILWAUKEE      PTCLDY    15   0  51 W5        30.26S WCI   8
WAUKESHA       CLEAR     10  -2  56 W5        30.25S WCI   2
MILWAUKEE/TIMM CLEAR     12  -2  52 SW6       30.26S WCI   3
RACINE         CLEAR     13   0  56 SW3       30.27S
BURLINGTON     CLEAR      9   1  70 CALM      30.25F
KENOSHA        CLEAR     13   2  61 W6        30.26S WCI   4
FOND DU LAC    CLOUDY    13   0  56 SW8       30.23S WCI   2
SHEBOYGAN      CLOUDY    12   0  58 SW8       30.22F WCI   0
WEST BEND      PTCLDY    10   0  61 CALM      30.23S
JUNEAU         CLOUDY    10  -1  60 SW5       30.24S WCI   2
$$

LSZ147-162-120300-
LAKE SUPERIOR

STATION/POSITION TIME  TEMP    WIND        PRES    WAVE
                       AIR SEA DIR/SP/G            HT/PER
                 (UTC) (F)     (DEG/KT/KT) (MB)    (FT/S)
DEVILS ISLAND    0100   17     280/ 20/ 24 1022.1R
PORT WING        0100   16     240/  7/ 13 1022.0S
SAXON HARBOR     0100   14                 1021.3R
$$

LMZ867-665-643>646-120300-
LAKE MICHIGAN

STATION/POSITION TIME  TEMP    WIND        PRES    WAVE
                       AIR SEA DIR/SP/G            HT/PER
                 (UTC) (F)     (DEG/KT/KT) (MB)    (FT/S)
CHAMBERS ISLAND  0100   16     200/  7/ 11 1021.3S
ALGOMA LAKESHORE 0111          280/  2/  5   N/A
KEWAUNEE LAKESHO 0100   13                 1022.0R
SHEBOYGAN LAKESH 0100   15     240/  7/  8 1025.7R
PORT WASHINGTON  0100   14     270/  3/  4 1025.4R
MILWAUKEE LAKESH 0110   19     260/  8/ 10   N/A
KENOSHA   LAKESH 0100   18     240/  5/  8 1025.1R
$$

TC  - TEMPERATURE IN CELSIUS
VSB - VISIBILITY IN STATUTE MILES
WCI - WIND CHILL INDEX
HX  - HEAT INDEX





USA.gov is the U.S. government's official web portal to all federal, state and local government web resources and services.